Cloud_Cover
0 0 0 0 0 0 0 0 0 0 0 0 0 0 0 0 5 5 36 100 100 100 100 50 92 83 100 100 100 100 100 99 64 35 99 82 0 0 0 0 0 5 0 4 52
0 0 0 0 0 0 0 5 0 0 0 0 0 0 0 1 4 5 5 96 100 100 100 48 47 52 100 100 100 100 100 97 37 0 9 100 0 2 4 0 19 6 12 0 20
10 0 0 0 0 0 0 2 5 0 0 0 0 0 0 1 0 2 3 1 100 100 100 100 93 80 100 97 100 100 100 19 31 5 26 15 13 100 100 66 0 0 0 0 4
15 0 4 0 0 0 0 0 5 0 0 0 0 0 0 0 0 0 0 0 54 5 93 100 100 100 19 100 54 97 54 72 68 5 99 3 57 9 9 0 0 0 5 4 0
11 2 3 1 0 0 4 0 5 0 4 0 0 0 1 0 0 0 0 0 5 5 5 92 100 100 100 79 87 63 89 8 13 34 89 53 23 2 1 0 1 0 4 7 17
0 0 7 2 0 0 1 2 0 5 0 4 1 35 0 0 0 0 0 0 2 2 2 5 99 100 100 100 96 100 100 92 46 15 41 54 39 26 3 1 3 0 0 4 40
16 16 7 4 0 0 0 3 1 0 4 5 5 0 0 0 0 0 0 0 5 9 13 5 7 100 100 100 100 74 100 100 100 42 94 100 100 100 14 2 0 0 0 0 10
95 59 26 10 2 0 0 0 0 3 1 2 5 1 0 0 0 0 0 0 0 4 5 5 1 3 100 99 100 100 97 100 100 89 100 90 100 100 95 24 0 87 5 5 6
100 100 73 35 2 0 0 0 0 0 0 4 8 5 0 0 0 0 0 0 0 0 0 0 3 4 3 15 100 100 100 75 55 100 100 100 100 100 91 46 9 99 99 8 4
100 100 75 10 6 0 0 0 0 0 0 0 5 4 5 0 0 0 0 0 0 0 0 0 0 1 4 89 48 82 96 56 100 100 100 100 100 90 99 41 32 45 100 81 1
100 100 73 0 0 0 12 0 0 0 0 0 0 5 5 3 0 0 0 0 0 0 0 0 4 13 100 99 26 24 100 100 5 98 100 100 100 100 100 100 100 100 100 99 41
86 97 7 0 0 4 11 0 0 0 0 0 0 0 0 5 4 0 0 0 0 0 0 0 0 8 20 5 9 89 48 59 38 2 11 99 100 100 100 100 100 100 100 100 100
77 0 5 0 7 3 0 0 0 0 0 0 0 0 0 0 0 0 0 0 0 0 0 0 0 0 0 0 0 5 25 25 83 5 2 33 36 100 100 100 100 61 48 100 100
100 100 12 81 4 0 0 0 0 0 0 0 0 0 0 0 0 0 0 0 0 0 0 0 0 0 0 0 0 0 0 0 0 0 0 37 99 11 89 95 54 92 94 5 33
100 100 62 94 0 0 0 0 0 0 0 0 0 0 0 0 0 0 0 0 0 0 0 0 0 0 0 0 0 0 0 0 0 0 0 0 0 88 77 19 15 42 98 100 42
100 100 94 0 0 0 0 0 0 0 0 0 0 0 0 0 0 0 0 0 0 0 0 0 0 0 0 0 0 0 0 0 0 0 0 0 0 0 66 77 100 100 72 100 100
75 60 60 0 0 0 0 0 0 0 0 0 0 0 0 0 0 0 0 0 0 0 0 0 0 0 0 0 0 0 0 0 0 0 0 0 0 0 0 2 6 74 62 14 39
43 65 0 0 0 0 0 0 0 0 0 0 0 0 0 0 0 0 0 0 0 0 0 0 0 0 0 0 0 0 0 0 0 0 0 0 1 6 0 0 0 16 2 1 0
41 5 0 0 0 0 0 0 0 0 1 0 0 0 0 0 0 0 0 0 0 0 0 0 0 0 0 0 0 0 0 0 0 0 0 2 67 5 0 0 0 0 0 0 0
5 5 8 48 13 5 2 5 0 0 6 0 0 0 0 0 0 0 0 0 0 0 0 0 0 0 0 0 0 0 0 0 0 0 0 0 0 54 1 0 0 0 0 0 0
5 35 7 100 100 44 94 99 58 4 0 0 0 0 0 1 0 0 0 0 0 0 0 0 0 0 0 0 0 0 0 0 0 0 0 0 19 92 92 0 0 0 0 0 0
2 99 72 100 100 100 100 100 100 100 0 0 0 0 0 0 0 0 3 0 0 0 0 0 0 0 0 0 0 0 0 0 0 0 0 0 0 5 85 92 5 0 0 0 0
0 6 70 100 100 100 100 100 100 100 56 0 0 0 0 1 0 0 0 0 0 0 0 0 0 0 0 0 5 0 0 0 0 0 0 0 0 100 0 11 28 0 0 0 0
5 90 27 92 100 100 100 100 96 100 100 5 0 0 0 0 1 1 0 0 0 0 0 0 0 0 0 2 14 3 0 0 0 0 0 0 0 97 100 81 42 0 0 0 0
18 87 30 100 100 100 100 100 100 100 100 100 4 0 0 2 5 0 0 0 0 0 0 0 0 0 0 0 0 0 0 0 0 0 0 0 0 0 0 56 74 0 0 0 0
10 5 100 100 100 100 100 100 100 100 100 100 49 2 5 18 58 95 48 5 13 3 0 0 0 0 0 0 0 0 0 0 0 0 0 0 0 0 0 0 0 0 0 0 0
35 24 100 100 100 100 100 100 100 100 100 100 100 88 35 84 70 7 3 35 10 3 2 1 5 5 3 2 1 2 5 6 5 5 4 3 2 0 5 0 0 0 0 0 0